Location: ????????
(54.8751°N, 38.5756°E)
Time: 13:32:29
(UTC+00:00)

Lacrosse 4 Rocket - Pass Details

Date: 14 April 2024
Orbit: 530 x 592 km, 68.0° (Epoch: 17 May)

Event Time Altitude Azimuth Distance (km) Brightness Sun altitude
Exits shadow 00:12:31 12° 287° (WNW) 1,683 3.5 -16.8°
Maximum altitude 00:15:11 21° 333° (NNW) 1,248 3.3 -16.5°
Drops below altitude 10° 00:18:16 10° 24° (NNE) 1,793 5.0 -16.2°
Sets 00:20:53 0° 41° (NE) 2,685 6.7 -16.0°
